{"data":{"norad_id":57139,"epoch":"2026-05-25T04:04:34.790304Z","epoch_age_seconds":64376,"freshness":"FRESH","line1":"1 57139U 23090AQ  26145.16984711  .00001877  00000+0  77726-4 0  9999","line2":"2 57139  43.0031 191.1166 0001299 272.4267  87.6436 15.27573393162057","mean_motion":15.27573393,"eccentricity":0.0001299,"inclination_deg":43.0031,"raan_deg":191.1166,"arg_perigee_deg":272.4267,"mean_anomaly_deg":87.6436,"bstar":7.7726e-5,"rev_number":16205,"period_min":94.267156432463,"perigee_km":482.17760920202,"apogee_km":483.96015048961,"semimajor_km":6861.2058798458,"source":"CELESTRAK","updated_at":"2026-05-25T13:38:18.247395Z"}}